owner,sensor,date,latitude,longitude,vertical_datum,direction_of_sea_water_velocity,sea_water_speed,upward_sea_water_velocity,qcFlag 
TABS,ioos:station:wmo:42043:1,1998-12-01T00:00:00Z,28.9818,-94.9186,2.0,0.000210459,21.46,-99999.0,'11111222,11111222,99999999' 
TABS,ioos:station:wmo:42043:1,1998-12-01T00:30:00Z,28.9818,-94.9186,2.0,358.9763703,25.18402073,-99999.0,'11111222,11111222,99999999' 
TABS,ioos:station:wmo:42043:1,1998-12-01T01:00:00Z,28.9818,-94.9186,2.0,355.7062874,23.90710564,-99999.0,'11111222,11111222,99999999' 
TABS,ioos:station:wmo:42043:1,1998-12-01T02:00:00Z,28.9818,-94.9186,2.0,357.074603,26.25421871,-99999.0,'11111222,11111222,99999999' 
TABS,ioos:station:wmo:42043:1,1998-12-01T03:00:00Z,28.9818,-94.9186,2.0,356.8343012,29.69532118,-99999.0,'11111222,11111222,99999999' 
TABS,ioos:station:wmo:42043:1,1998-12-01T03:30:00Z,28.9818,-94.9186,2.0,351.187664,26.23976562,-99999.0,'11111222,11111222,99999999' 
TABS,ioos:station:wmo:42043:1,1998-12-01T04:00:00Z,28.9818,-94.9186,2.0,354.9571512,27.07480933,-99999.0,'11111222,11111222,99999999' 
TABS,ioos:station:wmo:42043:1,1998-12-01T04:30:00Z,28.9818,-94.9186,2.0,1.26760648,27.12663636,-99999.0,'11111222,11111222,99999999' 
TABS,ioos:station:wmo:42043:1,1998-12-01T05:00:00Z,28.9818,-94.9186,2.0,356.3784274,23.58710877,-99999.0,'11111222,11111222,99999999' 
TABS,ioos:station:wmo:42043:1,1998-12-01T05:30:00Z,28.9818,-94.9186,2.0,349.7019791,23.32576687,-99999.0,'11111222,11111222,99999999' 
TABS,ioos:station:wmo:42043:1,1998-12-01T06:00:00Z,28.9818,-94.9186,2.0,0.000210459,23.69,-99999.0,'11111222,11111222,99999999' 
TABS,ioos:station:wmo:42043:1,1998-12-01T07:00:00Z,28.9818,-94.9186,2.0,344.7197079,19.7688897,-99999.0,'11111222,11111222,99999999' 
TABS,ioos:station:wmo:42043:1,1998-12-01T08:00:00Z,28.9818,-94.9186,2.0,346.2954403,6.289053983,-99999.0,'11133222,11111222,99999999' 
TABS,ioos:station:wmo:42043:1,1998-12-01T08:30:00Z,28.9818,-94.9186,2.0,0.000210459,1.34,-99999.0,'11133222,11111222,99999999' 
TABS,ioos:station:wmo:42043:1,1998-12-01T09:00:00Z,28.9818,-94.9186,2.0,179.9997895,6.11,-99999.0,'11133222,11111222,99999999' 
TABS,ioos:station:wmo:42043:1,1998-12-01T09:30:00Z,28.9818,-94.9186,2.0,199.1090912,11.82141278,-99999.0,'11111222,11111222,99999999' 
TABS,ioos:station:wmo:42043:1,1998-12-01T10:00:00Z,28.9818,-94.9186,2.0,205.428485,13.53087211,-99999.0,'11111222,11111222,99999999' 
TABS,ioos:station:wmo:42043:1,1998-12-01T10:30:00Z,28.9818,-94.9186,2.0,202.8696574,17.62555247,-99999.0,'11111222,11111222,99999999' 
TABS,ioos:station:wmo:42043:1,1998-12-01T11:00:00Z,28.9818,-94.9186,2.0,206.0779536,15.263951,-99999.0,'11111222,11111222,99999999' 
TABS,ioos:station:wmo:42043:1,1998-12-01T11:30:00Z,28.9818,-94.9186,2.0,218.5516539,14.10407742,-99999.0,'11111222,11111222,99999999' 
TABS,ioos:station:wmo:42043:1,1998-12-01T12:00:00Z,28.9818,-94.9186,2.0,211.3202758,20.93009317,-99999.0,'11111222,11111222,99999999' 
TABS,ioos:station:wmo:42043:1,1998-12-01T13:00:00Z,28.9818,-94.9186,2.0,212.1520095,26.04423353,-99999.0,'11111222,11111222,99999999' 
TABS,ioos:station:wmo:42043:1,1998-12-01T13:30:00Z,28.9818,-94.9186,2.0,243.1481142,40.24972671,-99999.0,'11111222,11111222,99999999' 
TABS,ioos:station:wmo:42043:1,1998-12-01T14:00:00Z,28.9818,-94.9186,2.0,258.2255018,40.1855148,-99999.0,'11111222,11111222,99999999' 
TABS,ioos:station:wmo:42043:1,1998-12-01T14:30:00Z,28.9818,-94.9186,2.0,258.728948,34.33209868,-99999.0,'11111222,11111222,99999999' 
TABS,ioos:station:wmo:42043:1,1998-12-01T15:00:00Z,28.9818,-94.9186,2.0,260.0051536,34.34114151,-99999.0,'11111222,11111222,99999999' 
TABS,ioos:station:wmo:42043:1,1998-12-01T15:30:00Z,28.9818,-94.9186,2.0,256.114287,28.54411673,-99999.0,'11111222,11111222,99999999' 
TABS,ioos:station:wmo:42043:1,1998-12-01T16:00:00Z,28.9818,-94.9186,2.0,252.6520047,31.99536216,-99999.0,'11111222,11111222,99999999' 
TABS,ioos:station:wmo:42043:1,1998-12-01T16:30:00Z,28.9818,-94.9186,2.0,253.9273176,36.59019677,-99999.0,'11111222,11111222,99999999' 
TABS,ioos:station:wmo:42043:1,1998-12-01T17:00:00Z,28.9818,-94.9186,2.0,258.9684428,35.0679412,-99999.0,'11111222,11111222,99999999' 
TABS,ioos:station:wmo:42043:1,1998-12-01T17:30:00Z,28.9818,-94.9186,2.0,261.5020182,33.29551471,-99999.0,'11111222,11111222,99999999' 
TABS,ioos:station:wmo:42043:1,1998-12-01T18:00:00Z,28.9818,-94.9186,2.0,260.2387612,32.50047692,-99999.0,'11111222,11111222,99999999' 
TABS,ioos:station:wmo:42043:1,1998-12-01T19:00:00Z,28.9818,-94.9186,2.0,264.7565882,30.96957378,-99999.0,'11111222,11111222,99999999' 
TABS,ioos:station:wmo:42043:1,1998-12-01T19:30:00Z,28.9818,-94.9186,2.0,266.4347081,31.20037179,-99999.0,'11111222,11111222,99999999' 
TABS,ioos:station:wmo:42043:1,1998-12-01T20:00:00Z,28.9818,-94.9186,2.0,261.6347977,30.72687586,-99999.0,'11111222,11111222,99999999' 
TABS,ioos:station:wmo:42043:1,1998-12-01T20:30:00Z,28.9818,-94.9186,2.0,255.5311949,28.61759249,-99999.0,'11111222,11111222,99999999' 
TABS,ioos:station:wmo:42043:1,1998-12-01T21:00:00Z,28.9818,-94.9186,2.0,248.3300557,24.21102228,-99999.0,'11111222,11111222,99999999' 
TABS,ioos:station:wmo:42043:1,1998-12-01T21:30:00Z,28.9818,-94.9186,2.0,254.0281819,36.27006066,-99999.0,'11111222,11111222,99999999' 
TABS,ioos:station:wmo:42043:1,1998-12-01T22:00:00Z,28.9818,-94.9186,2.0,245.5913491,21.27113067,-99999.0,'11111222,11111222,99999999' 
TABS,ioos:station:wmo:42043:1,1998-12-01T22:30:00Z,28.9818,-94.9186,2.0,241.5820075,16.6003012,-99999.0,'11111222,11111222,99999999' 
TABS,ioos:station:wmo:42043:1,1998-12-01T23:00:00Z,28.9818,-94.9186,2.0,242.1975842,15.32958251,-99999.0,'11111222,11111222,99999999' 
TABS,ioos:station:wmo:42043:1,1998-12-01T23:30:00Z,28.9818,-94.9186,2.0,229.8334353,18.71296075,-99999.0,'11111222,11111222,99999999' 
TABS,ioos:station:wmo:42043:1,1998-12-02T00:00:00Z,28.9818,-94.9186,2.0,224.9996843,11.79454111,-99999.0,'11111222,11111222,99999999' 
TABS,ioos:station:wmo:42043:1,1998-12-02T00:30:00Z,28.9818,-94.9186,2.0,203.4068412,9.741688765,-99999.0,'11133222,11111222,99999999' 
TABS,ioos:station:wmo:42043:1,1998-12-02T01:00:00Z,28.9818,-94.9186,2.0,164.0725797,8.672946443,-99999.0,'11133222,11111222,99999999' 
TABS,ioos:station:wmo:42043:1,1998-12-02T01:30:00Z,28.9818,-94.9186,2.0,144.1804153,9.927668407,-99999.0,'11133222,11111222,99999999' 
TABS,ioos:station:wmo:42043:1,1998-12-02T02:00:00Z,28.9818,-94.9186,2.0,7.726379044,6.620098187,-99999.0,'11133222,11111222,99999999' 
TABS,ioos:station:wmo:42043:1,1998-12-02T02:30:00Z,28.9818,-94.9186,2.0,330.9275255,3.066349621,-99999.0,'11133222,11111222,99999999' 
TABS,ioos:station:wmo:42043:1,1998-12-02T03:00:00Z,28.9818,-94.9186,2.0,58.99854683,2.601634102,-99999.0,'11133222,11111222,99999999' 
TABS,ioos:station:wmo:42043:1,1998-12-02T03:30:00Z,28.9818,-94.9186,2.0,102.4834974,4.117341375,-99999.0,'11133222,11111222,99999999' 
TABS,ioos:station:wmo:42043:1,1998-12-02T04:00:00Z,28.9818,-94.9186,2.0,115.9376895,6.127193485,-99999.0,'11133222,11111222,99999999' 
TABS,ioos:station:wmo:42043:1,1998-12-02T04:30:00Z,28.9818,-94.9186,2.0,136.372531,8.855518054,-99999.0,'11133222,11111222,99999999' 
TABS,ioos:station:wmo:42043:1,1998-12-02T05:00:00Z,28.9818,-94.9186,2.0,141.3400717,10.50112375,-99999.0,'11111222,11111222,99999999' 
TABS,ioos:station:wmo:42043:1,1998-12-02T05:30:00Z,28.9818,-94.9186,2.0,151.023967,14.13999293,-99999.0,'11111222,11111222,99999999' 
TABS,ioos:station:wmo:42043:1,1998-12-02T06:00:00Z,28.9818,-94.9186,2.0,156.4075847,14.14203663,-99999.0,'11111222,11111222,99999999' 
TABS,ioos:station:wmo:42043:1,1998-12-02T06:30:00Z,28.9818,-94.9186,2.0,160.2793779,16.77378013,-99999.0,'11111222,11111222,99999999' 
TABS,ioos:station:wmo:42043:1,1998-12-02T07:00:00Z,28.9818,-94.9186,2.0,150.263431,8.407074402,-99999.0,'11133222,11111222,99999999' 
TABS,ioos:station:wmo:42043:1,1998-12-02T07:30:00Z,28.9818,-94.9186,2.0,157.4665922,13.23001512,-99999.0,'11111222,11111222,99999999' 
TABS,ioos:station:wmo:42043:1,1998-12-02T08:00:00Z,28.9818,-94.9186,2.0,169.106891,20.47898923,-99999.0,'11111222,11111222,99999999' 
TABS,ioos:station:wmo:42043:1,1998-12-02T08:30:00Z,28.9818,-94.9186,2.0,172.9890452,30.47787558,-99999.0,'11111222,11111222,99999999' 
TABS,ioos:station:wmo:42043:1,1998-12-02T09:00:00Z,28.9818,-94.9186,2.0,181.7798856,38.30848731,-99999.0,'11111222,11111222,99999999' 
TABS,ioos:station:wmo:42043:1,1998-12-02T09:30:00Z,28.9818,-94.9186,2.0,184.0322034,44.51018872,-99999.0,'11111222,11111222,99999999' 
TABS,ioos:station:wmo:42043:1,1998-12-02T10:00:00Z,28.9818,-94.9186,2.0,184.8494766,47.55023449,-99999.0,'11111222,11111222,99999999' 
TABS,ioos:station:wmo:42043:1,1998-12-02T10:30:00Z,28.9818,-94.9186,2.0,182.7772472,52.21133402,-99999.0,'11111222,11111222,99999999' 
TABS,ioos:station:wmo:42043:1,1998-12-02T11:00:00Z,28.9818,-94.9186,2.0,186.177524,65.04774324,-99999.0,'11111222,11111222,99999999' 
TABS,ioos:station:wmo:42043:1,1998-12-02T11:30:00Z,28.9818,-94.9186,2.0,195.8627792,73.57176768,-99999.0,'11111222,11111222,99999999' 
TABS,ioos:station:wmo:42043:1,1998-12-02T12:00:00Z,28.9818,-94.9186,2.0,200.1509428,72.22087233,-99999.0,'11111222,11111222,99999999' 
TABS,ioos:station:wmo:42043:1,1998-12-02T12:30:00Z,28.9818,-94.9186,2.0,199.3608361,69.64877745,-99999.0,'11111222,11111222,99999999' 
TABS,ioos:station:wmo:42043:1,1998-12-02T13:00:00Z,28.9818,-94.9186,2.0,199.1597116,66.72623847,-99999.0,'11111222,11111222,99999999' 
TABS,ioos:station:wmo:42043:1,1998-12-02T13:30:00Z,28.9818,-94.9186,2.0,197.7823952,58.05369325,-99999.0,'11111222,11111222,99999999' 
TABS,ioos:station:wmo:42043:1,1998-12-02T14:00:00Z,28.9818,-94.9186,2.0,192.4201904,49.88758663,-99999.0,'11111222,11111222,99999999' 
TABS,ioos:station:wmo:42043:1,1998-12-02T14:30:00Z,28.9818,-94.9186,2.0,193.4149146,39.82668954,-99999.0,'11111222,11111222,99999999' 
TABS,ioos:station:wmo:42043:1,1998-12-02T15:00:00Z,28.9818,-94.9186,2.0,203.6489849,44.57334742,-99999.0,'11111222,11111222,99999999' 
TABS,ioos:station:wmo:42043:1,1998-12-02T15:30:00Z,28.9818,-94.9186,2.0,211.9171268,41.42264598,-99999.0,'11111222,11111222,99999999' 
TABS,ioos:station:wmo:42043:1,1998-12-02T16:00:00Z,28.9818,-94.9186,2.0,217.9623373,34.39825577,-99999.0,'11111222,11111222,99999999' 
TABS,ioos:station:wmo:42043:1,1998-12-02T16:30:00Z,28.9818,-94.9186,2.0,223.8197279,30.56056446,-99999.0,'11111222,11111222,99999999' 
TABS,ioos:station:wmo:42043:1,1998-12-02T17:00:00Z,28.9818,-94.9186,2.0,236.8733436,25.08753077,-99999.0,'11111222,11111222,99999999' 
TABS,ioos:station:wmo:42043:1,1998-12-02T17:30:00Z,28.9818,-94.9186,2.0,250.6014266,19.75121515,-99999.0,'11111222,11111222,99999999' 
TABS,ioos:station:wmo:42043:1,1998-12-02T18:00:00Z,28.9818,-94.9186,2.0,253.0827539,17.9047759,-99999.0,'11111222,11111222,99999999' 
TABS,ioos:station:wmo:42043:1,1998-12-02T18:30:00Z,28.9818,-94.9186,2.0,243.9863769,13.93134954,-99999.0,'11111222,11111222,99999999' 
TABS,ioos:station:wmo:42043:1,1998-12-02T19:00:00Z,28.9818,-94.9186,2.0,243.43459,13.32696515,-99999.0,'11111222,11111222,99999999' 
TABS,ioos:station:wmo:42043:1,1998-12-02T19:30:00Z,28.9818,-94.9186,2.0,233.9356144,14.93147682,-99999.0,'11111222,11111222,99999999' 
TABS,ioos:station:wmo:42043:1,1998-12-02T20:00:00Z,28.9818,-94.9186,2.0,234.1274476,11.94581098,-99999.0,'11111222,11111222,99999999' 
TABS,ioos:station:wmo:42043:1,1998-12-02T20:30:00Z,28.9818,-94.9186,2.0,238.2527786,11.04211031,-99999.0,'11111222,11111222,99999999' 
TABS,ioos:station:wmo:42043:1,1998-12-02T21:00:00Z,28.9818,-94.9186,2.0,221.0115402,13.6235825,-99999.0,'11111222,11111222,99999999' 
TABS,ioos:station:wmo:42043:1,1998-12-02T21:30:00Z,28.9818,-94.9186,2.0,215.5610035,14.0996773,-99999.0,'11111222,11111222,99999999' 
TABS,ioos:station:wmo:42043:1,1998-12-02T22:00:00Z,28.9818,-94.9186,2.0,215.8035748,14.51251184,-99999.0,'11111222,11111222,99999999' 
TABS,ioos:station:wmo:42043:1,1998-12-02T22:30:00Z,28.9818,-94.9186,2.0,209.2691297,15.54456818,-99999.0,'11111222,11111222,99999999' 
TABS,ioos:station:wmo:42043:1,1998-12-02T23:00:00Z,28.9818,-94.9186,2.0,211.9381638,16.33245848,-99999.0,'11111222,11111222,99999999' 
TABS,ioos:station:wmo:42043:1,1998-12-03T00:30:00Z,28.9818,-94.9186,2.0,216.9662674,16.59602362,-99999.0,'11111222,11111222,99999999' 
TABS,ioos:station:wmo:42043:1,1998-12-03T01:00:00Z,28.9818,-94.9186,2.0,213.2583433,16.57491176,-99999.0,'11111222,11111222,99999999' 
TABS,ioos:station:wmo:42043:1,1998-12-03T02:00:00Z,28.9818,-94.9186,2.0,215.5489265,11.54106581,-99999.0,'11111222,11111222,99999999' 
TABS,ioos:station:wmo:42043:1,1998-12-03T02:30:00Z,28.9818,-94.9186,2.0,211.6465349,10.50160464,-99999.0,'11111222,11111222,99999999' 
TABS,ioos:station:wmo:42043:1,1998-12-03T03:00:00Z,28.9818,-94.9186,2.0,205.3372026,9.393641466,-99999.0,'11133222,11111222,99999999' 
TABS,ioos:station:wmo:42043:1,1998-12-03T04:00:00Z,28.9818,-94.9186,2.0,223.407023,7.377973977,-99999.0,'11133222,11111222,99999999' 
TABS,ioos:station:wmo:42043:1,1998-12-03T04:30:00Z,28.9818,-94.9186,2.0,204.7623636,6.398320092,-99999.0,'11133222,11111222,99999999' 
TABS,ioos:station:wmo:42043:1,1998-12-03T05:00:00Z,28.9818,-94.9186,2.0,201.2819154,6.557171646,-99999.0,'11133222,11111222,99999999' 
TABS,ioos:station:wmo:42043:1,1998-12-03T06:00:00Z,28.9818,-94.9186,2.0,195.1500266,9.106508661,-99999.0,'11133222,11111222,99999999' 
TABS,ioos:station:wmo:42043:1,1998-12-03T06:30:00Z,28.9818,-94.9186,2.0,200.1642933,10.79144569,-99999.0,'11111222,11111222,99999999' 
TABS,ioos:station:wmo:42043:1,1998-12-03T07:00:00Z,28.9818,-94.9186,2.0,201.0868956,13.25782033,-99999.0,'11111222,11111222,99999999' 
TABS,ioos:station:wmo:42043:1,1998-12-03T07:30:00Z,28.9818,-94.9186,2.0,195.4559691,11.74475628,-99999.0,'11111222,11111222,99999999' 
TABS,ioos:station:wmo:42043:1,1998-12-03T08:00:00Z,28.9818,-94.9186,2.0,195.6005909,14.39015288,-99999.0,'11111222,11111222,99999999' 
TABS,ioos:station:wmo:42043:1,1998-12-03T08:30:00Z,28.9818,-94.9186,2.0,198.6750488,21.86101782,-99999.0,'11111222,11111222,99999999' 
TABS,ioos:station:wmo:42043:1,1998-12-03T09:00:00Z,28.9818,-94.9186,2.0,195.5128431,19.47965605,-99999.0,'11111222,11111222,99999999' 
TABS,ioos:station:wmo:42043:1,1998-12-03T09:30:00Z,28.9818,-94.9186,2.0,198.3442907,26.05403807,-99999.0,'11111222,11111222,99999999' 
TABS,ioos:station:wmo:42043:1,1998-12-03T10:00:00Z,28.9818,-94.9186,2.0,194.2886001,24.75585183,-99999.0,'11111222,11111222,99999999' 
TABS,ioos:station:wmo:42043:1,1998-12-03T10:30:00Z,28.9818,-94.9186,2.0,191.6437555,30.27300117,-99999.0,'11111222,11111222,99999999' 
TABS,ioos:station:wmo:42043:1,1998-12-03T11:00:00Z,28.9818,-94.9186,2.0,195.5168739,35.09935185,-99999.0,'11111222,11111222,99999999' 
TABS,ioos:station:wmo:42043:1,1998-12-03T11:30:00Z,28.9818,-94.9186,2.0,205.5059329,32.1869865,-99999.0,'11111222,11111222,99999999' 
TABS,ioos:station:wmo:42043:1,1998-12-03T12:00:00Z,28.9818,-94.9186,2.0,205.7556807,33.25364642,-99999.0,'11111222,11111222,99999999' 
TABS,ioos:station:wmo:42043:1,1998-12-03T12:30:00Z,28.9818,-94.9186,2.0,207.3399033,34.3804552,-99999.0,'11111222,11111222,99999999' 
TABS,ioos:station:wmo:42043:1,1998-12-03T13:00:00Z,28.9818,-94.9186,2.0,213.1261074,33.26698063,-99999.0,'11111222,11111222,99999999' 
TABS,ioos:station:wmo:42043:1,1998-12-03T13:30:00Z,28.9818,-94.9186,2.0,224.8353255,36.97476572,-99999.0,'11111222,11111222,99999999' 
TABS,ioos:station:wmo:42043:1,1998-12-03T14:00:00Z,28.9818,-94.9186,2.0,232.4404148,37.40270712,-99999.0,'11111222,11111222,99999999' 
TABS,ioos:station:wmo:42043:1,1998-12-03T14:30:00Z,28.9818,-94.9186,2.0,238.6499079,34.36738134,-99999.0,'11111222,11111222,99999999' 
TABS,ioos:station:wmo:42043:1,1998-12-03T15:00:00Z,28.9818,-94.9186,2.0,245.0009653,34.19331221,-99999.0,'11111222,11111222,99999999' 
TABS,ioos:station:wmo:42043:1,1998-12-03T15:30:00Z,28.9818,-94.9186,2.0,249.1033957,31.73743688,-99999.0,'11111222,11111222,99999999' 
TABS,ioos:station:wmo:42043:1,1998-12-03T16:00:00Z,28.9818,-94.9186,2.0,252.7698041,29.16897667,-99999.0,'11111222,11111222,99999999' 
TABS,ioos:station:wmo:42043:1,1998-12-03T16:30:00Z,28.9818,-94.9186,2.0,260.3687168,24.02865997,-99999.0,'11111222,11111222,99999999' 
TABS,ioos:station:wmo:42043:1,1998-12-03T17:00:00Z,28.9818,-94.9186,2.0,264.6926785,22.5968604,-99999.0,'11111222,11111222,99999999' 
TABS,ioos:station:wmo:42043:1,1998-12-03T17:30:00Z,28.9818,-94.9186,2.0,270.0004209,19.67,-99999.0,'11111222,11111222,99999999' 
TABS,ioos:station:wmo:42043:1,1998-12-03T18:00:00Z,28.9818,-94.9186,2.0,268.3038217,15.20665973,-99999.0,'11111222,11111222,99999999' 
TABS,ioos:station:wmo:42043:1,1998-12-03T18:30:00Z,28.9818,-94.9186,2.0,258.0939441,8.676646818,-99999.0,'11133222,11111222,99999999' 
TABS,ioos:station:wmo:42043:1,1998-12-03T19:00:00Z,28.9818,-94.9186,2.0,245.065987,7.068840075,-99999.0,'11133222,11111222,99999999' 
TABS,ioos:station:wmo:42043:1,1998-12-03T19:30:00Z,28.9818,-94.9186,2.0,239.0547484,5.211842285,-99999.0,'11133222,11111222,99999999' 
TABS,ioos:station:wmo:42043:1,1998-12-03T20:00:00Z,28.9818,-94.9186,2.0,290.0956051,1.746310396,-99999.0,'11133222,11111222,99999999' 
TABS,ioos:station:wmo:42043:1,1998-12-03T20:30:00Z,28.9818,-94.9186,2.0,178.253512,4.922286054,-99999.0,'11133222,11111222,99999999' 
TABS,ioos:station:wmo:42043:1,1998-12-03T21:00:00Z,28.9818,-94.9186,2.0,164.8679606,5.707906797,-99999.0,'11133222,11111222,99999999' 
TABS,ioos:station:wmo:42043:1,1998-12-03T21:30:00Z,28.9818,-94.9186,2.0,154.7769449,8.400976134,-99999.0,'11133222,11111222,99999999' 
TABS,ioos:station:wmo:42043:1,1998-12-03T22:00:00Z,28.9818,-94.9186,2.0,203.0451425,15.2250353,-99999.0,'11111222,11111222,99999999' 
TABS,ioos:station:wmo:42043:1,1998-12-03T22:30:00Z,28.9818,-94.9186,2.0,227.65801,18.1426707,-99999.0,'11111222,11111222,99999999' 
TABS,ioos:station:wmo:42043:1,1998-12-03T23:00:00Z,28.9818,-94.9186,2.0,231.277963,20.23856961,-99999.0,'11111222,11111222,99999999' 
TABS,ioos:station:wmo:42043:1,1998-12-03T23:30:00Z,28.9818,-94.9186,2.0,225.4763426,25.49915293,-99999.0,'11111222,11111222,99999999' 
TABS,ioos:station:wmo:42043:1,1998-12-04T00:00:00Z,28.9818,-94.9186,2.0,234.4265182,22.53577156,-99999.0,'11111222,11111222,99999999' 
TABS,ioos:station:wmo:42043:1,1998-12-04T00:30:00Z,28.9818,-94.9186,2.0,240.9719566,31.01607486,-99999.0,'11111222,11111222,99999999' 
TABS,ioos:station:wmo:42043:1,1998-12-04T01:00:00Z,28.9818,-94.9186,2.0,247.0638209,54.68313908,-99999.0,'11111222,11111222,99999999' 
TABS,ioos:station:wmo:42043:1,1998-12-04T01:30:00Z,28.9818,-94.9186,2.0,243.0854033,54.30168322,-99999.0,'11111222,11111222,99999999' 
TABS,ioos:station:wmo:42043:1,1998-12-04T02:00:00Z,28.9818,-94.9186,2.0,247.8308174,47.78224984,-99999.0,'11111222,11111222,99999999' 
TABS,ioos:station:wmo:42043:1,1998-12-04T02:30:00Z,28.9818,-94.9186,2.0,253.7874535,44.84321576,-99999.0,'11111222,11111222,99999999' 
TABS,ioos:station:wmo:42043:1,1998-12-04T03:00:00Z,28.9818,-94.9186,2.0,257.4477533,40.44668713,-99999.0,'11111222,11111222,99999999' 
TABS,ioos:station:wmo:42043:1,1998-12-04T03:30:00Z,28.9818,-94.9186,2.0,264.112595,34.90407999,-99999.0,'11111222,11111222,99999999' 
TABS,ioos:station:wmo:42043:1,1998-12-04T04:00:00Z,28.9818,-94.9186,2.0,268.4854344,33.68176064,-99999.0,'11111222,11111222,99999999' 
TABS,ioos:station:wmo:42043:1,1998-12-04T04:30:00Z,28.9818,-94.9186,2.0,277.3997527,30.0502396,-99999.0,'11111222,11111222,99999999' 
TABS,ioos:station:wmo:42043:1,1998-12-04T05:00:00Z,28.9818,-94.9186,2.0,282.6716243,24.43512226,-99999.0,'11111222,11111222,99999999' 
TABS,ioos:station:wmo:42043:1,1998-12-04T05:30:00Z,28.9818,-94.9186,2.0,290.3410219,22.72721056,-99999.0,'11111222,11111222,99999999' 
TABS,ioos:station:wmo:42043:1,1998-12-04T06:00:00Z,28.9818,-94.9186,2.0,284.3490884,20.45818418,-99999.0,'11111222,11111222,99999999' 
TABS,ioos:station:wmo:42043:1,1998-12-04T06:30:00Z,28.9818,-94.9186,2.0,283.9280349,19.19430384,-99999.0,'11111222,11111222,99999999' 
TABS,ioos:station:wmo:42043:1,1998-12-04T07:00:00Z,28.9818,-94.9186,2.0,278.6201167,16.88066942,-99999.0,'11111222,11111222,99999999' 
TABS,ioos:station:wmo:42043:1,1998-12-04T07:30:00Z,28.9818,-94.9186,2.0,265.1488731,15.84675677,-99999.0,'11111222,11111222,99999999' 
TABS,ioos:station:wmo:42043:1,1998-12-04T08:00:00Z,28.9818,-94.9186,2.0,260.3627687,15.113269,-99999.0,'11111222,11111222,99999999' 
TABS,ioos:station:wmo:42043:1,1998-12-04T08:30:00Z,28.9818,-94.9186,2.0,254.7360429,11.88939864,-99999.0,'11111222,11111222,99999999' 
TABS,ioos:station:wmo:42043:1,1998-12-04T09:00:00Z,28.9818,-94.9186,2.0,238.5236655,11.7018161,-99999.0,'11111222,11111222,99999999' 
TABS,ioos:station:wmo:42043:1,1998-12-04T09:30:00Z,28.9818,-94.9186,2.0,241.8971,12.33411934,-99999.0,'11111222,11111222,99999999' 
TABS,ioos:station:wmo:42043:1,1998-12-04T10:00:00Z,28.9818,-94.9186,2.0,230.1654475,12.80112886,-99999.0,'11111222,11111222,99999999' 
TABS,ioos:station:wmo:42043:1,1998-12-04T10:30:00Z,28.9818,-94.9186,2.0,213.1443906,16.8997071,-99999.0,'11111222,11111222,99999999' 
TABS,ioos:station:wmo:42043:1,1998-12-04T11:00:00Z,28.9818,-94.9186,2.0,200.0489964,19.98087586,-99999.0,'11111222,11111222,99999999' 
TABS,ioos:station:wmo:42043:1,1998-12-04T11:30:00Z,28.9818,-94.9186,2.0,185.8465292,20.51672976,-99999.0,'11111222,11111222,99999999' 
TABS,ioos:station:wmo:42043:1,1998-12-04T12:00:00Z,28.9818,-94.9186,2.0,185.5725082,26.05313417,-99999.0,'11111222,11111222,99999999' 
TABS,ioos:station:wmo:42043:1,1998-12-04T13:00:00Z,28.9818,-94.9186,2.0,191.4250472,26.30118819,-99999.0,'11111222,11111222,99999999' 
TABS,ioos:station:wmo:42043:1,1998-12-04T13:30:00Z,28.9818,-94.9186,2.0,197.8926662,24.73644275,-99999.0,'11111222,11111222,99999999' 
TABS,ioos:station:wmo:42043:1,1998-12-04T14:00:00Z,28.9818,-94.9186,2.0,196.895296,24.60191253,-99999.0,'11111222,11111222,99999999' 
TABS,ioos:station:wmo:42043:1,1998-12-04T14:30:00Z,28.9818,-94.9186,2.0,203.5003382,22.41957181,-99999.0,'11111222,11111222,99999999' 
TABS,ioos:station:wmo:42043:1,1998-12-04T15:00:00Z,28.9818,-94.9186,2.0,206.0085277,20.72932705,-99999.0,'11111222,11111222,99999999' 
TABS,ioos:station:wmo:42043:1,1998-12-04T15:30:00Z,28.9818,-94.9186,2.0,210.2166866,17.76361731,-99999.0,'11111222,11111222,99999999' 
TABS,ioos:station:wmo:42043:1,1998-12-04T16:00:00Z,28.9818,-94.9186,2.0,210.9760385,15.64067134,-99999.0,'11111222,11111222,99999999' 
TABS,ioos:station:wmo:42043:1,1998-12-04T16:30:00Z,28.9818,-94.9186,2.0,212.3832175,12.52838777,-99999.0,'11111222,11111222,99999999' 
TABS,ioos:station:wmo:42043:1,1998-12-04T17:00:00Z,28.9818,-94.9186,2.0,188.9853903,11.46065007,-99999.0,'11111222,11111222,99999999' 
TABS,ioos:station:wmo:42043:1,1998-12-04T17:30:00Z,28.9818,-94.9186,2.0,203.0612551,9.87952428,-99999.0,'11133222,11111222,99999999' 
TABS,ioos:station:wmo:42043:1,1998-12-04T18:00:00Z,28.9818,-94.9186,2.0,214.0244174,6.648195244,-99999.0,'11133222,11111222,99999999' 
TABS,ioos:station:wmo:42043:1,1998-12-04T18:30:00Z,28.9818,-94.9186,2.0,181.0301757,8.341348812,-99999.0,'11133222,11111222,99999999' 
TABS,ioos:station:wmo:42043:1,1998-12-04T19:00:00Z,28.9818,-94.9186,2.0,218.7971488,9.751517831,-99999.0,'11133222,11111222,99999999' 
TABS,ioos:station:wmo:42043:1,1998-12-04T19:30:00Z,28.9818,-94.9186,2.0,210.8082013,10.75814575,-99999.0,'11111222,11111222,99999999' 
TABS,ioos:station:wmo:42043:1,1998-12-04T20:00:00Z,28.9818,-94.9186,2.0,215.6196267,9.718312611,-99999.0,'11133222,11111222,99999999' 
TABS,ioos:station:wmo:42043:1,1998-12-04T20:30:00Z,28.9818,-94.9186,2.0,218.4079276,11.02597388,-99999.0,'11111222,11111222,99999999' 
TABS,ioos:station:wmo:42043:1,1998-12-04T21:00:00Z,28.9818,-94.9186,2.0,205.0858736,12.99588396,-99999.0,'11111222,11111222,99999999' 
TABS,ioos:station:wmo:42043:1,1998-12-04T21:30:00Z,28.9818,-94.9186,2.0,182.9304552,8.801511234,-99999.0,'11133222,11111222,99999999' 
TABS,ioos:station:wmo:42043:1,1998-12-04T22:00:00Z,28.9818,-94.9186,2.0,189.7540146,9.679938016,-99999.0,'11133222,11111222,99999999' 